#timestamp,LO_Frequency,Hit,StdDev 
1620532815.2,286046996.9,N
1620532835.0,286046997.7,N
1620532835.9,286046997.7,N
1620532855.8,286046995.0,N
1620532875.6,286046998.8,N
1620532895.4,286047002.0,N
1620532915.3,286047002.5,N
1620532935.1,286047000.3,N
1620532955.9,286047000.2,N
1620532975.7,286047000.9,N
1620532995.5,286047002.3,N
1620533015.4,286047004.2,N
1620533035.2,286047003.4,N
1620533055.1,286047001.4,N
1620533056.0,286047001.4,N
1620533075.8,286047002.6,N
1620533095.6,286047002.8,N
1620533115.5,286047002.8,N
1620533135.3,286046999.7,N
1620533155.1,286047004.2,N
1620533175.9,286047004.2,N
1620533195.7,286047001.7,N
1620533215.6,286047004.0,N
1620533235.4,286047004.0,N
1620533255.2,286047000.8,N
1620533275.1,286047000.4,N
1620533276.0,286047000.4,N
1620533295.8,286047004.2,N
1620533315.7,286047003.0,N
1620533335.5,286047002.0,N
1620533355.3,286047004.2,N
1620533375.2,286047001.8,N
1620533395.0,286047004.4,N
1620533395.9,286047004.4,N
1620533415.8,286047002.1,N
1620533435.6,286047002.1,N
1620533455.4,286047004.4,Y
1620533475.3,286046997.5,P
1620533495.1,286046996.7,N
1620533515.8,286046997.5,N
1620533535.7,286046998.4,N
1620533555.5,286046996.6,N
1620533575.4,286046996.7,N
1620533595.2,286046998.3,N
1620533615.0,286046996.9,N
1620533615.9,286046996.9,N
1620533635.8,286046999.6,N
1620533655.6,286046997.1,N
1620533675.4,286046997.3,N
1620533695.3,286046996.5,N
1620533715.1,286046997.6,N
1620533735.9,286046997.8,N
1620533755.7,286046997.3,N
1620533775.5,286046999.5,N
1620533795.4,286046999.5,N
1620533815.2,286046998.0,N
1620533835.0,286046994.9,Y
1620533836.0,286046994.9,P
1620533855.8,286046998.3,N
1620533875.6,286046999.1,N
1620533895.5,286046997.0,N
1620533915.3,286046996.5,N
1620533935.1,286046999.6,N
1620533955.9,286046999.9,N
1620533975.7,286047001.0,N
1620533995.5,286047000.9,N
1620534015.4,286047002.8,N
1620534035.2,286046999.9,N
1620534055.1,286047000.4,N
1620534056.0,286047000.4,N
1620534075.8,286046998.1,N
1620534095.6,286047000.9,N
1620534115.5,286046998.1,N
1620534135.3,286046997.0,N
1620534155.1,286046999.6,N
1620534175.9,286046998.9,N
1620534195.7,286046997.8,N
1620534215.6,286046997.1,N
1620534235.4,286046997.2,N
1620534255.2,286046995.0,N
1620534275.1,286046999.5,N
1620534276.0,286046999.5,N
1620534295.8,286046998.3,N
1620534315.7,286046998.1,N
1620534335.5,286047002.5,N
1620534355.3,286047002.6,N
1620534375.2,286047002.2,N
1620534395.0,286047000.5,N
1620534395.9,286047000.5,N
1620534415.8,286046998.7,N
1620534435.6,286046998.5,N
1620534455.4,286047002.8,N
1620534475.3,286047000.3,N
1620534495.1,286046996.7,N
1620534515.8,286046997.5,N
1620534535.7,286046997.9,N
1620534555.5,286046999.5,N
1620534575.3,286047001.2,N
1620534595.2,286047000.5,N
1620534615.0,286047001.4,N
1620534615.9,286047001.4,N
1620534635.8,286047002.1,N
1620534655.6,286046999.8,N
1620534675.4,286047000.7,N
1620534695.3,286046996.6,N
1620534715.1,286046997.8,N
1620534735.9,286046995.6,N
1620534755.7,286046995.0,N
1620534775.5,286046995.0,N
1620534795.4,286046997.8,N
1620534815.2,286046998.0,N
1620534835.0,286046997.7,N
1620534835.9,286046997.7,N
1620534855.8,286046995.4,N
1620534875.6,286046997.7,N
1620534895.5,286046995.5,N
1620534915.3,286046996.1,N
1620534935.1,286046995.3,N
1620534955.9,286046997.9,N
1620534975.7,286046997.1,N
1620534995.5,286046996.5,N
1620535015.4,286046997.7,N
1620535035.2,286046995.9,N
1620535055.1,286046994.1,N
1620535056.0,286046994.1,N
1620535075.8,286046995.6,N
1620535095.6,286046995.0,N
1620535115.5,286046996.4,N
1620535135.3,286046994.2,N
1620535155.1,286046995.3,N
1620535175.9,286046997.5,N
1620535195.7,286046999.4,N
1620535215.6,286046999.4,N
1620535235.4,286046998.4,N
1620535255.2,286046999.3,N
1620535275.1,286046999.6,N
1620535276.0,286046999.6,N
1620535295.8,286046995.2,N
1620535315.6,286046993.6,Y
1620535335.5,286046998.3,P
1620535355.3,286046999.2,N
1620535375.2,286046996.7,P
1620535395.9,286046997.8,N
1620535415.7,286046997.7,N
1620535435.6,286046996.0,Y
1620535455.4,286046997.0,P
1620535475.2,286046999.1,N
1620535495.1,286046999.2,N
1620535496.0,286046999.2,N
1620535515.8,286047000.3,N
1620535535.7,286047000.7,N
1620535555.5,286047001.2,N
1620535575.3,286046999.4,N
1620535595.2,286047001.0,N
1620535615.0,286047000.6,N
1620535615.9,286047000.6,N
1620535635.8,286046998.4,N
1620535655.6,286047001.1,N
1620535675.4,286047001.1,N
1620535695.3,286046998.3,N
1620535715.1,286046996.7,N
1620535735.8,286046997.5,N
1620535755.7,286046995.1,Y
1620535775.5,286046999.6,P
1620535795.4,286046997.9,P
1620535815.2,286046994.9,P
1620535835.0,286046997.4,N
1620535835.9,286046997.4,N
1620535855.8,286046995.9,N
1620535875.6,286046999.2,N
1620535895.4,286046999.0,N
1620535915.3,286046997.2,N
1620535935.1,286046997.7,N
1620535955.9,286046997.9,N
1620535975.7,286046994.9,Y
1620535995.5,286046998.9,P
1620536015.4,286046999.9,N
1620536035.2,286047000.6,N
1620536055.1,286046998.3,N
1620536056.0,286046998.3,N
1620536075.8,286046998.6,N
1620536095.6,286046998.5,N
1620536115.5,286047000.5,N
1620536135.3,286046998.6,N
1620536155.2,286046999.3,N
1620536175.9,286046997.3,Y
1620536195.7,286047000.1,P
1620536215.6,286047000.3,N
1620536235.4,286046998.9,N
1620536255.2,286046998.6,N
1620536275.1,286046998.9,N
1620536276.0,286046998.9,N
1620536295.8,286047000.0,N
1620536315.7,286047001.4,N
1620536335.5,286047002.8,Y
1620536355.3,286047002.1,P
1620536375.2,286047000.1,N
1620536395.0,286047000.2,N
1620536395.9,286047000.2,N
